Location: ???????
(55.4362°N, 38.1183°E)
Time: 16:54:51
(UTC+00:00)

Cosmos 2333 Rocket - Pass Details

Date: 26 October 2021
Orbit: 837 x 865 km, 70.8° (Epoch: 04 December)

Event Time Altitude Azimuth Distance (km) Brightness Sun altitude
Exits shadow 23:28:24 25° 59° (ENE) 1,664 4.1 -39.8°
Drops below altitude 10° 23:31:48 10° 91° (E) 2,509 5.1 -39.4°
Sets 23:34:36 0° 103° (ESE) 3,445 5.8 -39.1°
